Home > Weather > Helsinki > Past weeks

Flag for Finland Past Weather in Helsinki, Finland — Yesterday and Last 2 Weeks

Now
54 °F

Overcast.


Feels Like: 54 °F
Forecast: 52 / 68 °F
Wind: 1 mph from Northeast

Location: Helsinki Malmi Airport

Current Time: May 29, 2016 at 4:59:51 AM

Latest Report: May 29, 2016 at 4:20 AM


Visibility: N/A

Pressure: 30.27 "Hg

Humidity: 88%

Dew Point: 50 °F

Location of HelsinkiLocation

Past Weather in Helsinki — Graph

°F

Helsinki Temperature Yesterday

Maximum temperature yesterday: 59 °F (at 2:50 PM)
Minimum temperature yesterday: 48 °F (at 1:20 AM)
Average temperature yesterday: 55 °F

High & Low Weather Summary for the Past Weeks

 TemperatureHumidityPressure
High73 °F (May 25, 10:50 AM)100% (May 14, 7:20 PM)30.33 "Hg (May 14, 7:20 PM)
Low36 °F (May 19, 4:50 AM)20% (May 25, 6:20 PM)29.50 "Hg (May 15, 7:20 AM)
Average56 °F70%29.89 "Hg
* Reported May 14 3:20 AM — May 29 3:50 AM, Helsinki, Weather by CustomWeather, © 2016

Note: Actual official high and low records may vary slightly from our data, if they occured in-between our weather recording intervals... More about our weather records

Advertising

Helsinki Weather History for the Previous 24 Hours

Scroll right to see more
 ConditionsComfort  
Time TempWeatherWind HumidityBarometerVisibility
3:50 AM
Sun, May 29
52 °FOvercast.1 mph94%30.27 "HgN/A
3:20 AM52 °FOvercast.1 mph94%30.27 "HgN/A
2:50 AM52 °FOvercast.1 mph94%30.27 "HgN/A
2:20 AM52 °FOvercast.2 mph94%30.30 "HgN/A
1:50 AM52 °FOvercast.1 mph94%30.30 "HgN/A
1:20 AM52 °FOvercast.2 mph94%30.30 "HgN/A
12:50 AM52 °FLow clouds.3 mph94%30.30 "HgN/A
12:20 AM52 °FDrizzle. Fog.1 mph100%30.30 "Hg3 mi
11:50 PM
Sat, May 28
52 °FDrizzle. Overcast.1 mph100%30.30 "Hg5 mi
11:20 PM54 °FOvercast.3 mph88%30.30 "HgN/A
10:50 PM54 °FOvercast.3 mph88%30.30 "HgN/A
10:20 PM54 °FOvercast.3 mph88%30.30 "HgN/A
9:50 PM54 °FOvercast.6 mph88%30.30 "HgN/A
9:20 PM54 °FOvercast.5 mph88%30.30 "HgN/A
8:50 PM55 °FPartly sunny.5 mph82%30.30 "HgN/A
8:20 PM55 °FPartly sunny.6 mph82%30.27 "HgN/A
7:50 PM55 °FPartly sunny.5 mph77%30.27 "HgN/A
7:20 PM55 °FPartly sunny.7 mph77%30.30 "HgN/A
6:50 PM55 °FPartly sunny.8 mph82%30.30 "HgN/A
6:20 PM55 °FPartly sunny.8 mph77%30.30 "HgN/A
5:50 PM55 °FPartly sunny.7 mph77%30.30 "HgN/A
5:20 PM57 °FPartly sunny.6 mph77%30.30 "HgN/A
4:50 PM57 °FPartly sunny.7 mph77%30.30 "HgN/A
4:20 PM57 °FPartly sunny.6 mph77%30.30 "HgN/A
3:50 PM57 °FPartly sunny.5 mph77%30.30 "HgN/A
3:20 PM57 °FPartly sunny.7 mph77%30.30 "HgN/A
2:50 PM59 °FPartly sunny.5 mph72%30.30 "HgN/A
2:20 PM57 °FPartly sunny.6 mph77%30.33 "HgN/A
1:50 PM57 °FPartly sunny.7 mph77%30.33 "HgN/A
1:20 PM57 °FPartly sunny.8 mph77%30.33 "HgN/A
12:50 PM57 °FPartly sunny.9 mph77%30.33 "HgN/A
12:20 PM57 °FPartly sunny.8 mph77%30.33 "HgN/A
11:50 AM57 °FPartly sunny.8 mph77%30.33 "HgN/A
11:20 AM57 °FPartly sunny.9 mph77%30.33 "HgN/A
10:50 AM57 °FBroken clouds.7 mph77%30.33 "HgN/A
10:20 AM57 °FPartly sunny.12 mph77%30.33 "HgN/A
9:50 AM57 °FBroken clouds.8 mph77%30.33 "HgN/A
9:20 AM57 °FPartly sunny.6 mph82%30.30 "HgN/A
8:50 AM57 °FPartly sunny.8 mph82%30.30 "HgN/A
8:20 AM57 °FPartly sunny.5 mph82%30.30 "HgN/A
7:50 AM55 °FOvercast.3 mph88%30.30 "HgN/A
7:20 AM55 °FOvercast.5 mph88%30.30 "HgN/A
6:50 AM55 °FPartly sunny.3 mph88%30.30 "HgN/A
6:20 AM55 °FBroken clouds.3 mph88%30.30 "HgN/A
5:50 AM54 °FBroken clouds.3 mph94%30.30 "HgN/A
5:20 AM54 °FBroken clouds.2 mph94%30.30 "HgN/A
4:50 AM54 °FPassing clouds.2 mph94%30.27 "HgN/A
4:20 AM54 °FPassing clouds.1 mph88%30.27 "HgN/A
Weather by CustomWeather, © 2016

See weather overviewHow to use our weather pages